PSLV R/B, 41242

Orbit data source: Space-Track

PSLV R/B, 41242 is space debris in HEO originally from a launch on Wed, 20 Jan 2016 UTC launched from the Sirharikota (SRI). Debris objects in space refer to the collection of defunct objects orbiting the Earth. Examples of debris include non-operational satellites, rocket bodies, and fragments generated from explosions, collisions, or faulty payload assembly.

Loading next visibility...
Identifier
41242, 2016-003B
Orbit
HEO
Country
Flag of ININ / IND
Related business
Manufacturer
VSSC/LPSC
Mission
Spacecraft
Bus & Motor
PS-4, Unknown motor
Mass
920 kg wet, 920 kg dry
Launch date (UTC)
2016-01-20 (10 years ago)
Launch vehicle
Unknown
Launch site
Sirharikota (SRI)
Object type
Payload
Rocket body
Debris
Shape & HBR
Cyl + Cyl + 2 Nozzle, 1.5 m
Radar Cross Section
3.727 m², Large (>1 m²)

Expand to show TLE details & history
Last TLE update: 10 hours ago

TLE from 10 hours ago
0 PSLV R/B
1 41242U 16003B   26063.32823193  .00004515  00000-0  13238-2 0  9995
2 41242  18.9687 155.1172 5989975 352.2822   1.5798  4.03710359146498
Epoch: 2026-03-04T07:52Z
TLE epoch observation values (Epoch: 2026-03-04T07:52:39.238Z)
Latitude
0.00006°
Longitude
-125.1468°
Altitude
317.858 km
Speed
9.753 km/s
True Right ascension
10h 20m 26s
True Declination
0° 00' 00"
Sunlit
Object was in full shadow at epoch
Visualization orbit readout
Latitude
Unknown
Longitude
Unknown
Altitude
Unknown
Speed
Unknown
Apparent Right ascension
Unknown
Apparent Declination
Unknown
Sunlit
N/A
Visualization observer readout
Local Sidereal Time
21:52:26
Azimuth
Unknown
Elevation
Unknown
Doppler factor
Unknown
Orbital elements
Apogee altitude
20,268.94 km
Perigee altitude
304.515 km
Semi-major axis
16,664.865 km
Eccentricity
0.599
Inclination
18.9687°
RAAN
155.1172°
Arg. of periapsis
352.2822°
True anomaly
7.8485°
Mean anomaly
1.5798°
Eccentric anomaly
3.93501°
Mean motion
1.00888 °/min
Orbital period
356.83 mins
BSTAR
0.0013238
Loading maneuver chart data...
Computing Atmospheric mass density...
Loading historical data...
Loading historical data...
Loading historical data...
Loading historical data...
Loading historical data...
Loading historical data...
Loading historical data...
Other satellites on launch #3 in the year 2016 (2016-01-20 UTC)

Documentation

Showing up to 5 results
|